User: anonymous   Login
Location: Pine Mountain Observatory
(43.7910°N, 120.9377°W)
Time: 13:22:46
(UTC-08:00)
Language:

Meteor 2-19 Rocket - Orbit

View from above orbital plane
View from above orbital plane
View from above satellite
View from above satellite

Ground track
Ground track

The orbit data is extracted from the following two-line orbital elements,

1 20671U 90057B   17323.87514248  .00000016  00000-0  67022-6 0  9992
2 20671  82.5484 248.3486 0014022 237.4102 122.5705 13.84610677384608
Epoch (UTC): 19 November 2017 21:00:12
Eccentricity: 0.0014022
inclination: 82.5484°
perigee height: 937 km
apogee height: 958 km
right ascension of ascending node: 248.3486°
argument of perigee: 237.4102°
revolutions per day: 13.84610677
mean anomaly at epoch: 122.5705°
orbit number at epoch: 38460

The dashed part of the orbit path shows where the satellite is in the earth's shadow,  

DLR